User: anonymous   Login
Location: Unspecified
(0.0000°N, 0.0000°E)
Time: 07:20:58
(UTC+00:00)
Language:

Elektron 1 - Orbit

View from above orbital plane
View from above orbital plane
View from above satellite
View from above satellite

Ground track
Ground track

The orbit data is extracted from the following two-line orbital elements,

1   746U 64006A   17179.78661652 +.00000314 +00000-0 +93881-4 0  9990
2   746 060.8348 268.1083 3042536 109.9557 285.1446 09.03254538770671
Epoch (UTC): 28 June 2017 18:52:43
Eccentricity: 0.3042536
inclination: 60.8348°
perigee height: 398 km
apogee height: 6324 km
right ascension of ascending node: 268.1083°
argument of perigee: 109.9557°
revolutions per day: 9.03254538
mean anomaly at epoch: 285.1446°
orbit number at epoch: 77067

The dashed part of the orbit path shows where the satellite is in the earth's shadow,  

DLR